Regional Weather Roundup
Issued by NWS

Home | Current Version | Previous Version | Text Only | Print | Product List | Glossary Off
Versions: 1 2 3 4 5 6 7 8 9 10 11 12 13 14 15 16 17 18 19 20 21 22 23 24 25 26 27 28 29 30 31 32 33 34 35 36 37 38 39 40 41 42 43 44 45 46 47 48 49 50

000
ASUS43 KBIS 211810
RWRND

NORTH DAKOTA REGIONAL WEATHER ROUNDUP
NATIONAL WEATHER SERVICE BISMARCK ND
1200 PM CST TUE FEB 21 2017

NOTE: "FAIR" INDICATES FEW OR NO CLOUDS BELOW 12,000 FEET WITH NO
SIGNIFICANT WEATHER AND/OR OBSTRUCTIONS TO VISIBILITY.


NDZ001>003-009>011-017-211900-
NORTHWEST NORTH DAKOTA

CITY           SKY/WX    TMP DP  RH WIND       PRES   REMARKS
WILLISTON      FAIR      40  32  73 SW8       29.67R
6HR MIN TEMP:  28; 6HR MAX TEMP:  40;

MINOT          FAIR      45  34  65 SW9       29.65R
MINOT AFB      SUNNY     40  34  79 CALM      29.64S
$$

NDZ018>021-031>035-040>046-211900-
SOUTHWEST NORTH DAKOTA

CITY           SKY/WX    TMP DP  RH WIND       PRES   REMARKS
BISMARCK       FAIR      46  33  60 SW3       29.70S
6HR MIN TEMP:  28; 6HR MAX TEMP:  47;

DICKINSON      PTSUNNY   49  32  52 SW8       29.67F
GARRISON         N/A     43  34  70 W6        29.66F
6HR MIN TEMP:  28; 6HR MAX TEMP:  43;

HETTINGER ARPT MOSUNNY   60  32  34 W7        29.73S
$$

NDZ004>008-012>016-024-026-027-054-211900-
NORTHEAST NORTH DAKOTA

CITY           SKY/WX    TMP DP  RH WIND       PRES   REMARKS
GRAND FORKS    MOSUNNY   42  32  67 CALM      29.67S
GRND FRKS AFB  SUNNY     41  36  83 CALM      29.67F
DEVILS LAKE    FAIR      37  34  89 NW3       29.66S
$$

NDZ022-023-025-028>030-036>039-047>053-211900-
SOUTHEAST NORTH DAKOTA

CITY           SKY/WX    TMP DP  RH WIND       PRES   REMARKS
FARGO          CLOUDY    43  37  79 SW10      29.67S
6HR MIN TEMP:  34; 6HR MAX TEMP:  43;

JAMESTOWN      FAIR      44  35  70 W12       29.66S
$$





USA.gov is the U.S. government's official web portal to all federal, state and local government web resources and services.